Haleyville, AL

1:06 AM CDT on April 30, 2017 (GMT -0500)
Haleyville

Weather History for K1M4 - April, 2014

Change the Weather History Date:

Thursday, April 24, 2014

  Actual Average (KJFX) Record (KJFX)
Temperature  
Mean Temperature 59 °F -  
Max Temperature 79 °F 75 °F 91 °F (1965)
Min Temperature 39 °F 48 °F 32 °F (1982)
Degree Days  
Heating Degree Days 6    
Growing Degree Days 9 (Base 50)    
Moisture  
Dew Point 51 °F    
Average Humidity 68    
Maximum Humidity 100    
Minimum Humidity 33    
Precipitation  
Precipitation 0.04 in - - ()
Sea Level Pressure  
Sea Level Pressure 29.95 in    
Wind  
Wind Speed 6 mph (South)    
Max Wind Speed 22 mph    
Max Gust Speed 31 mph    
Visibility 9 miles    
Events Rain    
Averages and records for this station are not official NWS values.
T = Trace of Precipitation, MM = Missing Value Source: NWS Daily Summary

Daily Weather History Graph

Daily Weather History Graph

Search for Another Location

Airport or City:

Trip Planner

Search our weather history database for the weather conditions in past years. The results will help you decide how hot, cold, wet, or windy it might be!

Date:

Astronomy

Apr. 24, 2014 Rise Set
Actual Time 6:08 AM CDT 7:29 PM CDT
Civil Twilight 5:42 AM CDT 7:55 PM CDT
Nautical Twilight 5:10 AM CDT 8:27 PM CDT
Astronomical Twilight 4:37 AM CDT 8:59 PM CDT
Moon 3:05 AM CDT (4/24) 2:56 PM CDT (4/24)
Length of Visible Light 14h 13m
Length of Day
13h 20m
Waning Crescent, 24% of the Moon is Illuminated
Apr 24
Waning Crescent
Apr 29
New
May 6
First Quarter
May 14
Full
May 21
Last Quarter

Hourly Weather History & Observations

Time (CDT) Temp. Windchill Dew Point Humidity Pressure Visibility Wind Dir Wind Speed Gust Speed Precip Events Conditions
12:56 AM 45.0 °F - 43.9 °F 96% 30.03 in 10.0 mi Calm Calm - N/A   Clear
1:56 AM 43.9 °F - 43.0 °F 97% 30.02 in 10.0 mi Calm Calm - N/A   Clear
2:56 AM 41.9 °F - 41.9 °F 100% 30.02 in 10.0 mi Calm Calm - N/A   Clear
3:56 AM 41.9 °F - 41.0 °F 97% 30.02 in 10.0 mi Calm Calm - N/A   Clear
4:56 AM 39.9 °F - 39.9 °F 100% 30.01 in 10.0 mi Calm Calm - N/A   Clear
5:56 AM 39.9 °F - 39.9 °F 100% 30.03 in 10.0 mi Calm Calm - N/A   Clear
6:56 AM 41.9 °F 39.0 °F 41.0 °F 97% 30.04 in 10.0 mi East 4.6 mph - N/A   Clear
7:56 AM 57.9 °F - 41.9 °F 55% 30.05 in 10.0 mi ESE 4.6 mph - N/A   Clear
8:56 AM 63.9 °F - 43.0 °F 47% 30.06 in 10.0 mi SSE 8.1 mph - N/A   Clear
9:56 AM 68.0 °F - 43.9 °F 42% 30.06 in 10.0 mi SSE 8.1 mph - N/A   Clear
10:56 AM 72.9 °F - 45.0 °F 37% 30.04 in 10.0 mi South 11.5 mph - N/A   Clear
11:56 AM 77.0 °F - 45.9 °F 33% 30.01 in 10.0 mi SSW 13.8 mph 18.4 mph N/A   Clear
12:56 PM 77.9 °F - 50.9 °F 39% 29.99 in 10.0 mi SSW 11.5 mph 18.4 mph N/A   Clear
1:56 PM 79.9 °F - 50.9 °F 36% 29.98 in 10.0 mi SSW 13.8 mph 19.6 mph N/A   Partly Cloudy
2:56 PM 79.9 °F - 50.9 °F 36% 29.96 in 10.0 mi SW 13.8 mph - N/A   Clear
3:56 PM 79.0 °F - 50.9 °F 37% 29.94 in 10.0 mi SW 10.4 mph - N/A   Partly Cloudy
4:56 PM 79.9 °F - 52.0 °F 38% 29.90 in 10.0 mi South 12.7 mph 19.6 mph N/A   Scattered Clouds
5:56 PM 77.9 °F - 54.0 °F 43% 29.89 in 10.0 mi SSW 9.2 mph 17.3 mph N/A   Partly Cloudy
6:56 PM 74.8 °F - 55.9 °F 52% 29.91 in 10.0 mi South 6.9 mph - N/A   Clear
7:56 PM 70.9 °F - 56.8 °F 61% 29.89 in 10.0 mi SSE 4.6 mph - N/A   Clear
8:56 PM 70.9 °F - 57.9 °F 63% 29.90 in 10.0 mi South 6.9 mph - N/A   Partly Cloudy
9:56 PM 68.9 °F - 59.0 °F 71% 29.88 in 9.0 mi South 13.8 mph - 0.00 in Rain Light Rain
10:14 PM 68.0 °F - 60.8 °F 78% 29.84 in 7.0 mi South 17.3 mph 21.9 mph 0.00 in Rain Light Rain
10:22 PM 66.2 °F - 60.8 °F 83% 29.83 in 4.0 mi South 21.9 mph 27.6 mph 0.02 in Rain Light Rain
10:29 PM 66.2 °F - 60.8 °F 83% 29.81 in 5.0 mi SSE 19.6 mph 28.8 mph 0.02 in Rain Light Rain
10:39 PM 66.2 °F - 60.8 °F 83% 29.85 in 7.0 mi South 16.1 mph 28.8 mph 0.03 in Rain Light Rain
10:56 PM 64.9 °F - 61.9 °F 90% 29.87 in 7.0 mi South 16.1 mph 31.1 mph 0.04 in Rain Light Rain
11:03 PM 64.4 °F - 62.6 °F 94% 29.81 in 10.0 mi SSE 13.8 mph - 0.00 in Rain Light Rain
11:56 PM 64.9 °F - 61.0 °F 87% 29.89 in 10.0 mi SW 5.8 mph - 0.00 in   Mostly Cloudy